Wind_Speed
11 10 8 9 8 9 8 8 7 12 10 11 9 9 8 9 8 6 7 7 7 7 7 7 6 6 6 7 7 7 7 8 8 8 8 7 8 8 8 8 8 8 7
8 8 8 9 9 7 9 8 13 9 10 8 9 8 8 7 7 7 4 9 9 8 7 7 6 6 6 6 6 6 7 7 7 8 8 8 8 8 8 8 8 8 7
8 9 7 7 6 8 9 8 10 8 7 8 7 6 7 8 6 7 4 5 8 10 9 7 6 7 6 7 7 7 7 8 8 9 9 10 10 9 9 8 8 7 7
6 7 7 7 6 5 6 4 8 6 8 6 8 8 7 6 6 7 4 4 3 4 9 9 9 8 8 8 8 9 9 10 11 11 11 11 10 10 9 9 8 8 7
6 8 7 4 7 7 5 5 7 8 7 8 8 7 6 4 3 5 3 3 5 4 1 5 11 11 9 9 10 11 11 12 13 13 12 12 12 12 11 10 10 9 8
5 9 6 9 10 6 7 7 7 5 5 5 4 5 4 3 3 2 2 4 2 3 2 3 6 9 9 10 10 11 11 12 12 13 13 13 13 13 12 12 11 10 10
3 13 7 12 7 7 8 7 7 5 4 1 0 3 2 3 2 3 3 4 3 3 2 1 6 1 5 10 9 10 12 12 13 13 13 13 13 13 13 13 12 11 10
5 6 9 8 8 5 5 5 7 5 5 1 4 3 8 7 6 5 3 4 4 3 2 3 1 2 5 3 6 12 12 12 13 13 13 14 15 16 15 13 12 11 10
6 6 10 7 11 10 6 6 5 2 4 1 4 7 6 2 7 4 5 4 5 4 3 3 4 1 2 2 9 10 11 13 13 14 14 16 17 18 18 16 15 13 12
6 8 9 7 13 6 13 8 5 3 5 5 3 4 6 5 6 9 5 3 5 5 5 4 1 1 1 5 8 9 13 14 14 14 14 17 20 22 22 19 16 14 14
7 8 10 9 10 8 7 8 5 6 4 4 2 4 4 2 2 6 11 6 6 4 3 4 3 2 2 2 5 10 12 14 15 13 15 19 22 23 22 19 14 10 10
6 8 9 12 10 5 7 8 7 7 2 5 2 3 1 2 4 1 5 5 7 4 3 3 3 2 1 3 5 12 11 17 17 14 17 20 22 22 21 18 15 13 11
8 10 11 11 11 12 9 9 10 7 7 4 9 4 3 2 3 2 4 4 7 4 4 3 2 1 1 3 9 14 15 18 20 17 18 20 22 20 20 19 16 14 11
7 13 9 10 9 7 7 10 9 11 9 7 7 7 7 6 4 2 2 1 3 4 3 3 3 1 4 6 11 13 13 16 18 19 22 21 22 20 19 18 16 14 13
17 7 8 9 8 8 8 10 9 10 8 11 8 10 9 7 7 3 2 5 6 4 8 3 2 5 4 5 14 15 11 14 16 20 25 23 21 19 17 18 16 14 13
11 14 11 9 10 10 10 11 9 9 13 9 10 12 13 6 8 6 6 5 7 6 5 0 4 8 12 12 10 19 13 16 17 18 23 25 22 19 17 17 16 15 13
11 12 7 11 10 10 11 11 13 9 11 14 15 10 12 15 8 9 9 9 8 8 10 10 7 8 11 16 13 15 13 13 15 18 19 25 23 23 17 16 15 14 13
16 15 16 14 14 13 13 13 13 11 11 12 13 14 14 13 16 15 9 11 10 11 10 14 13 14 13 15 17 19 13 11 12 14 20 22 21 22 22 18 14 13 14
17 16 16 16 16 16 15 17 16 14 13 13 13 14 14 15 17 14 14 14 13 11 11 11 13 13 13 14 14 14 14 13 13 13 19 18 18 22 18 22 16 13 13
18 18 19 19 17 16 16 16 17 17 15 15 15 15 15 15 17 17 19 17 17 17 13 15 15 14 13 13 14 13 13 12 14 14 11 15 19 21 18 18 21 15 14
21 20 19 21 21 19 18 19 19 18 17 17 17 18 17 18 19 19 16 16 15 15 14 14 15 14 14 13 12 12 16 15 16 13 13 13 19 21 18 21 19 18 16
24 24 23 23 24 23 23 23 23 22 22 21 21 19 20 21 23 22 22 21 19 19 22 18 16 16 19 18 16 15 16 16 20 13 14 16 15 14 22 20 21 24 17
24 26 27 26 27 29 26 29 30 28 25 24 24 25 22 20 24 23 21 21 21 24 26 25 25 24 23 22 23 24 18 19 20 19 19 19 14 13 13 20 19 23 20
23 26 29 30 31 31 32 30 33 36 34 33 29 25 27 28 26 24 26 23 25 26 27 27 28 27 26 25 23 22 22 23 20 19 16 18 15 15 15 22 23 23 18
26 28 27 29 32 34 34 34 34 35 35 38 39 38 36 32 32 30 28 28 28 28 24 27 27 27 26 25 24 24 23 22 24 21 17 19 19 19 18 22 22 20 20
22 23 24 28 31 34 35 36 38 37 34 38 37 40 41 43 43 41 38 36 39 38 30 28 28 28 29 30 29 27 29 27 24 24 19 19 18 18 20 17 24 27 20
Wind_Direction
119 127 139 129 114 109 120 104 109 102 101 101 97 98 103 104 101 98 43 56 69 74 76 76 72 65 61 50 42 37 34 34 32 33 35 35 32 26 22 22 25 28 27
117 121 115 125 125 112 116 116 110 98 108 108 101 99 102 104 110 102 10 35 46 58 60 57 53 48 42 41 40 38 37 37 37 36 33 41 34 27 24 21 20 19 20
148 146 137 141 144 147 122 107 107 117 114 99 96 107 97 100 88 94 82 356 16 35 34 46 45 48 51 54 54 56 54 48 46 44 41 37 32 25 18 12 10 9 11
160 122 121 146 144 141 122 139 110 116 126 101 96 99 112 98 102 104 99 94 22 316 6 27 51 55 59 65 70 66 62 57 53 48 42 36 30 23 15 6 1 358 358
154 147 146 138 130 133 138 158 118 121 120 160 126 111 129 116 144 91 78 117 113 102 11 27 48 48 55 64 66 64 61 56 51 45 37 29 21 15 8 1 354 350 346
164 148 168 150 133 118 200 130 138 142 91 108 132 92 126 119 122 84 126 129 93 87 109 71 11 26 38 62 64 62 56 49 43 35 29 24 19 14 7 358 349 341 337
178 142 170 151 129 155 124 120 124 120 125 154 235 167 130 142 132 150 124 124 79 119 133 56 91 123 23 48 51 51 46 39 33 24 17 13 7 4 3 358 355 353 340
161 158 164 170 170 156 143 156 178 185 124 115 343 277 186 138 102 115 137 142 145 132 126 92 147 112 108 4 26 31 25 20 13 8 5 358 351 345 341 337 333 337 339
170 177 162 195 180 172 168 141 147 187 142 121 56 1 360 99 112 119 117 136 122 134 140 125 132 124 91 107 16 358 5 360 0 359 357 355 356 353 345 333 319 313 308
175 182 178 193 183 224 165 182 181 128 142 147 120 35 45 1 21 121 128 135 131 132 151 115 108 114 45 37 343 341 346 352 350 354 358 356 353 347 346 339 327 318 309
181 184 188 193 202 175 209 190 188 188 177 158 106 121 93 78 343 2 137 127 134 135 121 110 137 119 34 33 9 338 354 3 355 352 353 352 353 355 356 355 355 347 332
189 187 198 205 191 209 211 197 196 191 169 205 119 157 89 235 280 191 111 133 131 134 131 131 104 92 34 358 333 350 0 357 355 357 357 354 357 360 1 2 4 3 357
182 214 198 200 199 193 198 191 219 207 220 192 211 221 231 244 45 135 21 140 145 140 131 135 126 97 3 10 314 356 354 342 349 355 359 357 1 2 1 1 2 1 354
193 221 231 198 189 215 196 210 216 205 225 224 230 205 191 173 249 33 0 118 187 184 192 165 238 280 326 321 319 340 332 331 346 355 359 358 1 360 1 358 360 3 358
226 184 203 197 201 213 208 220 208 216 219 213 225 212 205 197 228 225 228 281 321 291 188 187 272 284 312 328 295 317 327 317 346 341 349 354 354 357 359 358 360 1 360
241 222 188 209 205 211 209 213 220 222 220 214 220 231 231 254 219 226 234 241 274 302 300 92 275 281 285 302 308 299 322 344 340 331 333 346 353 356 355 357 358 2 358
228 248 213 222 223 219 223 225 201 227 221 214 209 228 239 227 228 232 240 243 249 259 264 268 295 305 301 309 302 310 326 351 319 318 326 336 349 356 352 357 357 2 6
224 223 231 224 230 229 228 233 230 219 228 225 234 229 234 236 242 236 238 243 243 252 260 274 275 282 294 294 315 316 326 318 313 314 330 326 335 348 357 353 352 358 4
229 223 230 232 228 230 227 230 231 224 227 232 230 234 236 237 239 233 241 244 253 265 263 268 278 279 282 283 297 310 315 317 336 317 317 313 332 333 336 348 345 353 357
234 232 219 229 235 234 233 236 237 225 228 235 238 239 241 240 244 247 237 240 248 248 255 262 270 276 280 286 287 300 304 305 306 306 311 310 319 327 317 334 334 341 345
233 239 238 225 228 235 238 234 234 239 235 236 239 244 246 245 243 240 239 251 244 254 259 261 266 269 273 277 278 288 298 304 297 307 307 297 317 316 309 323 327 341 338
230 233 239 239 232 233 237 236 235 235 243 243 248 249 246 250 256 252 247 235 236 240 244 253 260 265 265 281 283 283 285 294 295 304 300 296 304 296 299 314 307 312 321
228 239 239 238 241 247 236 234 239 236 234 243 245 248 247 249 255 264 261 254 251 251 256 262 261 260 263 264 270 277 284 278 283 291 292 294 296 297 299 278 288 310 308
237 238 238 243 242 244 248 242 237 241 242 240 237 248 251 246 240 257 262 254 262 262 260 261 266 274 276 279 279 282 287 291 292 300 297 281 296 292 295 273 289 315 313
244 239 241 243 245 249 243 246 246 243 245 248 251 247 242 248 255 246 244 252 254 255 265 276 281 286 289 287 280 273 267 271 276 279 278 277 285 289 291 284 283 300 308
247 245 244 247 246 249 249 249 243 244 244 249 254 256 254 253 251 254 255 251 253 254 255 257 264 274 275 277 279 276 273 261 266 274 275 279 280 283 289 290 287 297 301
Height
1602 1603 1603 1603 1605 1605 1606 1607 1605 1608 1608 1609 1609 1610 1610 1610 1610 1609 1608 1607 1606 1606 1605 1605 1604 1604 1603 1603 1602 1601 1601 1600 1599 1597 1595 1594 1593 1592 1591 1589 1587 1586 1585
1604 1605 1605 1605 1607 1607 1608 1608 1605 1609 1610 1610 1610 1610 1611 1611 1611 1611 1609 1609 1608 1607 1607 1606 1605 1605 1604 1603 1603 1602 1602 1601 1599 1598 1596 1595 1594 1593 1591 1590 1588 1587 1586
1603 1605 1606 1606 1607 1608 1609 1609 1610 1611 1611 1612 1612 1612 1613 1612 1613 1613 1613 1611 1610 1609 1609 1608 1607 1606 1605 1604 1604 1603 1603 1601 1600 1599 1598 1597 1595 1594 1592 1590 1589 1587 1586
1603 1604 1607 1608 1609 1609 1610 1611 1611 1612 1612 1613 1613 1614 1614 1615 1615 1614 1614 1614 1612 1611 1610 1610 1609 1608 1607 1606 1605 1604 1604 1603 1602 1601 1600 1598 1596 1595 1593 1591 1589 1588 1587
1603 1605 1608 1608 1608 1611 1611 1611 1613 1612 1613 1612 1613 1614 1615 1614 1613 1615 1616 1615 1614 1615 1614 1612 1611 1610 1609 1608 1607 1607 1606 1605 1604 1603 1601 1600 1598 1596 1594 1592 1590 1588 1587
1603 1605 1608 1609 1608 1611 1609 1612 1613 1613 1613 1614 1613 1615 1615 1616 1616 1615 1615 1615 1615 1615 1616 1614 1613 1612 1612 1611 1610 1609 1608 1607 1606 1604 1603 1601 1599 1596 1594 1591 1590 1588 1586
1604 1605 1609 1609 1608 1611 1611 1613 1615 1615 1616 1615 1614 1614 1615 1614 1615 1615 1615 1616 1616 1617 1616 1616 1615 1616 1614 1613 1612 1612 1610 1609 1607 1605 1603 1601 1599 1596 1594 1591 1589 1587 1585
1605 1607 1608 1610 1610 1611 1613 1614 1614 1616 1616 1616 1615 1612 1612 1614 1614 1615 1616 1616 1617 1617 1617 1616 1616 1614 1615 1616 1614 1613 1611 1610 1607 1605 1603 1600 1598 1595 1593 1591 1588 1586 1585
1606 1608 1608 1610 1611 1611 1614 1615 1615 1615 1616 1617 1616 1615 1612 1611 1613 1615 1615 1616 1616 1618 1618 1617 1618 1616 1616 1617 1615 1614 1612 1610 1608 1605 1603 1600 1597 1594 1591 1589 1587 1585 1583
1606 1608 1609 1610 1610 1611 1612 1615 1615 1615 1616 1617 1617 1616 1614 1614 1614 1615 1616 1617 1617 1617 1618 1619 1619 1618 1617 1618 1617 1615 1613 1610 1608 1605 1603 1600 1597 1593 1590 1586 1583 1582 1580
1606 1607 1609 1611 1611 1611 1613 1613 1615 1615 1617 1616 1617 1617 1617 1616 1615 1614 1615 1617 1618 1619 1619 1619 1620 1620 1619 1619 1619 1615 1613 1610 1608 1605 1603 1600 1596 1592 1588 1585 1581 1579 1577
1605 1606 1608 1608 1609 1609 1612 1615 1616 1616 1616 1616 1617 1617 1618 1618 1616 1615 1616 1617 1618 1620 1620 1621 1620 1620 1620 1620 1617 1615 1613 1610 1608 1605 1603 1599 1595 1591 1588 1584 1581 1579 1577
1604 1603 1605 1607 1608 1610 1612 1613 1615 1617 1617 1618 1618 1618 1619 1618 1616 1616 1616 1617 1618 1620 1621 1621 1621 1621 1621 1620 1617 1615 1612 1610 1608 1605 1602 1598 1595 1591 1588 1584 1582 1579 1576
1599 1601 1603 1605 1607 1609 1611 1612 1615 1616 1618 1618 1618 1617 1617 1619 1619 1617 1618 1618 1619 1619 1620 1620 1621 1621 1620 1620 1617 1614 1613 1610 1608 1605 1602 1598 1595 1591 1588 1585 1582 1579 1577
1597 1601 1603 1605 1607 1609 1611 1612 1612 1614 1614 1617 1617 1617 1617 1619 1620 1620 1620 1619 1618 1617 1617 1618 1620 1619 1619 1619 1615 1613 1612 1610 1607 1604 1602 1598 1594 1590 1588 1585 1582 1579 1577
1599 1596 1600 1604 1606 1608 1609 1610 1611 1612 1614 1616 1616 1617 1617 1616 1619 1620 1621 1621 1620 1619 1617 1617 1618 1618 1617 1615 1615 1611 1610 1607 1606 1604 1601 1599 1595 1591 1588 1585 1582 1579 1577
1596 1596 1599 1602 1605 1607 1608 1608 1608 1610 1611 1612 1613 1615 1615 1615 1617 1619 1620 1620 1620 1621 1620 1618 1617 1617 1614 1613 1612 1609 1608 1607 1606 1603 1600 1598 1595 1590 1587 1584 1582 1579 1576
1594 1596 1598 1600 1602 1604 1606 1606 1608 1609 1610 1611 1612 1612 1614 1615 1615 1615 1616 1616 1617 1616 1617 1616 1616 1614 1614 1612 1610 1607 1607 1607 1605 1601 1599 1596 1594 1590 1587 1584 1581 1579 1577
1590 1593 1595 1597 1599 1601 1602 1604 1605 1606 1608 1609 1610 1610 1611 1612 1612 1614 1614 1614 1614 1613 1613 1613 1613 1613 1612 1611 1610 1607 1606 1605 1603 1602 1597 1594 1592 1588 1586 1584 1581 1579 1576
1585 1587 1591 1594 1595 1597 1599 1600 1601 1602 1604 1606 1607 1607 1608 1608 1609 1609 1610 1610 1610 1610 1610 1610 1609 1609 1609 1608 1607 1606 1605 1604 1602 1600 1598 1593 1590 1586 1584 1582 1580 1577 1575
1580 1582 1585 1589 1592 1594 1596 1597 1599 1599 1599 1602 1603 1603 1604 1605 1605 1606 1607 1607 1607 1607 1607 1607 1606 1605 1605 1604 1603 1602 1601 1600 1598 1597 1595 1592 1587 1584 1581 1578 1578 1576 1574
1576 1578 1579 1582 1585 1588 1591 1593 1594 1595 1596 1597 1598 1599 1600 1600 1600 1600 1601 1602 1602 1602 1601 1601 1602 1601 1600 1600 1600 1599 1598 1596 1593 1593 1591 1589 1587 1585 1577 1575 1573 1574 1572
1571 1572 1574 1576 1577 1579 1583 1586 1588 1589 1591 1592 1592 1594 1595 1595 1595 1595 1595 1596 1597 1596 1596 1596 1595 1596 1595 1596 1596 1594 1593 1592 1589 1589 1587 1584 1583 1581 1580 1575 1573 1571 1569
1563 1565 1567 1568 1570 1572 1574 1577 1580 1581 1583 1585 1586 1587 1588 1589 1590 1591 1590 1591 1590 1590 1590 1590 1589 1590 1590 1590 1590 1589 1588 1585 1584 1582 1582 1580 1580 1578 1577 1570 1569 1569 1566
1556 1557 1559 1561 1562 1563 1566 1569 1572 1574 1574 1575 1576 1578 1580 1581 1582 1585 1586 1586 1585 1584 1586 1584 1583 1583 1583 1584 1585 1584 1584 1583 1580 1580 1579 1578 1576 1575 1573 1569 1564 1564 1564
1550 1551 1550 1552 1554 1555 1557 1559 1563 1566 1567 1566 1567 1567 1569 1570 1573 1575 1577 1578 1578 1577 1580 1580 1579 1577 1577 1577 1577 1577 1576 1574 1575 1575 1574 1574 1571 1571 1569 1568 1560 1558 1558